GW6092 Weather Reports


time (UTC)temp
F
wind
direction
speed
knots
gust
knots
rain 1hr
in
rain 24hr
in
rain mn
in
humidity
%
barometer
mb
20260505122519 64 12 0.0 0.9 0.00 0.00 0.00 57 1011.0
20260505122015 64 15 0.9 0.9 0.00 0.00 0.00 57 1011.0
20260505121512 63 18 2.6 2.6 0.00 0.00 0.00 58 1010.9
20260505121009 62 37 0.0 0.9 0.00 0.00 0.00 59 1011.0
20260505120505 62 9 0.9 0.9 0.00 0.00 0.00 62 1011.0
20260505120005 61 24 0.9 0.9 0.00 0.00 0.00 62 1011.0
20260505115500 60 24 0.0 0.9 0.00 0.00 0.00 66 1010.8
20260505114958 59 14 0.9 0.9 0.00 0.00 0.00 67 1011.0
20260505114455 59 33 0.0 0.9 0.00 0.00 0.00 67 1010.9
20260505113952 59 33 0.9 0.9 0.00 0.00 0.00 70 1010.8
20260505113448 58 20 1.7 1.7 0.00 0.00 0.00 72 1010.7
20260505112943 58 27 0.0 0.0 0.00 0.00 0.00 74 1010.7
20260505112441 55 21 0.0 0.9 0.00 0.00 0.00 73 1010.8
20260505111938 55 50 0.9 1.7 0.00 0.00 0.00 82 1010.7
20260505111437 55 32 0.0 0.0 0.00 0.00 0.00 83 1010.8
20260505110934 54 30 0.9 0.9 0.00 0.00 0.00 83 1010.7
20260505110431 53 24 0.0 0.0 0.00 0.00 0.00 85 1010.6
20260505101903 52 11 0.0 0.9 0.00 0.00 0.00 88 1010.2
20260505101403 52 31 0.0 0.0 0.00 0.00 0.00 88 1010.1
20260505100859 52 15 0.0 0.9 0.00 0.00 0.00 87 1010.2
20260505100355 52 29 0.0 0.0 0.00 0.00 0.00 87 1010.0
20260505095851 52 42 0.0 0.9 0.00 0.00 0.00 86 1009.9
20260505095349 52 32 0.9 0.9 0.00 0.00 0.00 86 1010.0
20260505094845 53 14 0.9 0.9 0.00 0.00 0.00 84 1010.0
20260505094342 53 31 0.0 0.0 0.00 0.00 0.00 83 1009.8
20260505093837 54 17 0.0 0.9 0.00 0.00 0.00 83 1009.9
20260505093335 54 36 0.0 0.9 0.00 0.00 0.00 81 1009.9
20260505092832 55 25 0.0 0.0 0.00 0.00 0.00 79 1009.9
20260505092330 55 36 0.9 1.7 0.00 0.00 0.00 78 1009.7
20260505091827 56 33 0.9 0.9 0.00 0.00 0.00 76 1009.8
20260505091325 56 31 0.0 0.9 0.00 0.00 0.00 75 1009.8
20260505090823 57 32 0.0 0.0 0.00 0.00 0.00 74 1009.8
20260505090321 55 28 0.9 0.9 0.00 0.00 0.00 76 1009.8
20260505085818 55 48 0.9 0.9 0.00 0.00 0.00 78 1009.8
20260505085316 55 31 0.9 0.9 0.00 0.00 0.00 78 1009.9
20260505084813 55 19 0.0 0.9 0.00 0.00 0.00 78 1009.8
20260505084312 54 34 1.7 1.7 0.00 0.00 0.00 81 1009.9
20260505083808 54 38 0.9 0.9 0.00 0.00 0.00 81 1009.8
20260505083306 54 11 0.9 0.9 0.00 0.00 0.00 81 1009.9
20260505082802 55 24 0.9 0.9 0.00 0.00 0.00 78 1009.8
20260505082259 55 31 1.7 1.7 0.00 0.00 0.00 79 1009.8
20260505081755 55 20 0.9 0.9 0.00 0.00 0.00 78 1009.8
20260505081252 55 9 1.7 1.7 0.00 0.00 0.00 80 1009.7
20260505080749 54 14 0.0 0.9 0.00 0.00 0.00 83 1009.7
20260505080244 53 23 0.9 0.9 0.00 0.00 0.00 83 1009.8
20260505075740 53 32 0.0 0.0 0.00 0.00 0.00 84 1009.7
20260505075238 53 32 0.9 0.9 0.00 0.00 0.00 87 1009.8
20260505074735 52 33 0.0 0.0 0.00 0.00 0.00 90 1009.7
20260505074232 51 9 0.9 0.9 0.00 0.00 0.00 92 1009.8
20260505073729 50 33 0.9 0.9 0.00 0.00 0.00 93 1009.7
20260505073227 50 28 0.0 0.0 0.00 0.00 0.00 93 1009.7
20260505072723 50 21 0.0 0.9 0.00 0.00 0.00 93 1009.7
20260505072219 50 27 0.9 0.9 0.00 0.00 0.00 93 1009.6
20260505071715 50 22 0.0 0.9 0.00 0.00 0.00 92 1009.5
20260505071212 50 32 0.0 0.0 0.00 0.00 0.00 92 1009.6
20260505070710 50 27 0.0 0.0 0.00 0.00 0.00 92 1009.7
20260505070206 50 28 0.0 0.0 0.00 0.00 0.00 92 1009.5
20260505065702 50 25 0.0 0.0 0.00 0.00 0.00 92 1009.5
20260505065159 50 24 0.0 0.0 0.00 0.00 0.00 92 1009.6
20260505064656 50 28 0.0 0.0 0.00 0.00 0.00 92 1009.5
20260505064154 50 30 0.0 0.0 0.00 0.00 0.00 92 1009.5
20260505063651 50 33 0.0 0.0 0.00 0.00 0.00 92 1009.6
20260505063147 50 20 0.0 0.0 0.00 0.00 0.00 92 1009.6
20260505062643 50 22 0.0 0.0 0.00 0.00 0.00 92 1009.7
20260505062141 50 32 0.0 0.9 0.00 0.00 0.00 91 1009.8
20260505061638 50 28 0.0 0.0 0.00 0.00 0.00 91 1009.5
20260505061136 51 28 0.0 0.0 0.00 0.00 0.00 91 1009.4
20260505060633 51 28 0.0 0.0 0.00 0.00 0.00 91 1009.6
20260505060130 51 28 0.0 0.0 0.00 0.00 0.00 91 1009.5
20260505055625 51 27 0.0 0.0 0.00 0.00 0.00 90 1009.7
20260505055122 51 28 0.0 0.0 0.00 0.00 0.00 90 1009.7
20260505054619 51 28 0.0 0.0 0.00 0.00 0.00 90 1009.8
20260505054118 51 28 0.0 0.0 0.00 0.00 0.00 90 1009.7
20260505053614 51 27 0.0 0.0 0.00 0.00 0.00 89 1009.8
20260505053111 51 24 0.0 0.0 0.00 0.00 0.00 89 1009.5
20260505052608 51 30 0.0 0.9 0.00 0.00 0.00 89 1009.7
20260505052106 51 25 0.0 0.0 0.00 0.00 0.00 88 1009.8
20260505051602 52 19 0.0 0.0 0.00 0.00 0.00 88 1009.8
20260505051100 52 23 0.9 0.9 0.00 0.00 0.00 89 1009.8
20260505050558 52 20 0.0 0.0 0.00 0.00 0.00 88 1009.7
20260505041526 52 30 0.0 0.0 0.00 0.00 0.00 85 1009.5
20260505041023 52 26 0.0 0.0 0.00 0.00 0.00 85 1009.6
20260505040520 52 27 0.0 0.0 0.00 0.00 0.00 84 1009.8
20260505040018 53 28 0.0 0.0 0.00 0.00 0.00 84 1009.6
20260505035513 53 31 0.0 0.0 0.00 0.00 0.00 84 1009.5
20260505035010 53 28 0.0 0.0 0.00 0.00 0.00 83 1009.5
20260505034507 53 29 0.0 0.0 0.00 0.00 0.00 83 1009.6
20260505034004 53 33 0.0 0.0 0.00 0.00 0.00 83 1009.6
20260505033500 53 31 0.0 0.0 0.00 0.00 0.00 82 1009.6
20260505032959 53 30 0.9 0.9 0.00 0.00 0.00 81 1009.6
20260505032456 54 28 0.0 0.0 0.00 0.00 0.00 81 1009.7
20260505031952 54 28 0.0 0.0 0.00 0.00 0.00 81 1009.4
20260505031449 54 28 0.0 0.0 0.00 0.00 0.00 79 1009.6
20260505030946 54 28 0.0 0.0 0.00 0.00 0.00 79 1009.5
20260505030442 55 31 0.0 0.0 0.00 0.00 0.00 78 1009.4
20260505025937 55 35 0.0 0.0 0.00 0.00 0.00 78 1009.6
20260505025435 55 32 0.0 0.0 0.00 0.00 0.00 77 1009.6
20260505024934 55 32 0.0 0.0 0.00 0.00 0.00 77 1009.4
20260505024431 55 30 0.0 0.0 0.00 0.00 0.00 75 1009.6
20260505023928 56 30 0.0 0.0 0.00 0.00 0.00 75 1009.6
20260505023425 56 30 0.0 0.0 0.00 0.00 0.00 74 1009.7
20260505022922 56 27 0.0 0.0 0.00 0.00 0.00 73 1009.5
20260505022420 56 28 0.0 0.0 0.00 0.00 0.00 73 1009.5
20260505021916 57 28 0.0 0.0 0.00 0.00 0.00 72 1009.4
20260505021413 57 32 0.0 0.0 0.00 0.00 0.00 72 1009.4
20260505020909 57 31 0.0 0.0 0.00 0.00 0.00 72 1009.3
20260505020404 57 29 0.0 0.0 0.00 0.00 0.00 69 1009.6
20260505015901 58 32 0.0 0.0 0.00 0.00 0.00 69 1009.5
20260505015358 58 32 0.0 0.0 0.00 0.00 0.00 68 1009.3
20260505014856 58 35 0.0 0.0 0.00 0.00 0.00 68 1009.2
20260505014352 59 32 0.0 0.0 0.00 0.00 0.00 68 1009.2
20260505013849 59 33 0.0 0.9 0.00 0.00 0.00 67 1009.1
20260505013346 59 43 0.0 0.9 0.00 0.00 0.00 67 1009.1
20260505012845 59 36 0.0 0.0 0.00 0.00 0.00 65 1008.8
20260505012343 60 42 0.0 0.0 0.00 0.00 0.00 63 1009.1
20260505011838 60 37 0.0 0.0 0.00 0.00 0.00 61 1009.0
20260505011335 61 39 0.0 0.9 0.00 0.00 0.00 60 1009.2
20260505010831 61 36 0.0 0.0 0.00 0.00 0.00 59 1009.0
20260505010327 62 37 0.0 0.0 0.00 0.00 0.00 59 1009.0
20260505005823 62 38 0.0 0.0 0.00 0.00 0.00 58 1008.9
20260505005320 62 40 0.0 0.9 0.00 0.00 0.00 58 1008.8
20260505004818 63 34 0.0 0.0 0.00 0.00 0.00 56 1008.9
20260505004314 63 37 0.0 0.9 0.00 0.00 0.00 56 1008.8
20260505003811 64 30 0.0 0.0 0.00 0.00 0.00 56 1008.8
20260505003309 64 32 0.0 0.0 0.00 0.00 0.00 54 1008.7
20260505002805 65 32 0.0 0.0 0.00 0.00 0.00 52 1008.8
20260505002304 66 33 0.0 0.0 0.00 0.00 0.00 51 1008.8
20260505001800 66 36 0.0 0.0 0.00 0.00 0.00 49 1008.8
20260505001257 67 32 0.0 0.0 0.00 0.00 0.00 48 1008.6
20260505000754 68 42 0.0 0.0 0.00 0.00 0.00 46 1008.7
20260505000252 69 32 0.0 0.0 0.00 0.00 0.00 45 1008.5
20260504235748 69 39 0.0 0.9 0.00 0.00 0.00 42 1008.6
20260504235244 70 33 0.0 0.0 0.00 0.00 0.00 42 1008.4
20260504234742 71 34 0.0 0.0 0.00 0.00 0.00 38 1008.4
20260504234239 72 42 1.7 1.7 0.00 0.00 0.00 38 1008.4
20260504233735 73 35 0.9 0.9 0.00 0.00 0.00 36 1008.4
20260504233231 73 53 0.9 0.9 0.00 0.00 0.00 35 1008.6
20260504232728 73 56 0.9 0.9 0.00 0.00 0.00 34 1008.6
20260504232225 73 51 1.7 2.6 0.00 0.00 0.00 34 1008.7
20260504231722 74 89 5.2 7.0 0.00 0.00 0.00 33 1008.5
20260504231218 74 38 0.9 0.9 0.00 0.00 0.00 34 1008.5
20260504230714 75 121 5.2 7.0 0.00 0.00 0.00 33 1008.5
20260504230214 75 31 1.7 2.6 0.00 0.00 0.00 33 1008.3
20260504225712 75 50 0.9 0.9 0.00 0.00 0.00 33 1008.4
20260504225207 74 22 0.0 0.0 0.00 0.00 0.00 33 1008.4
20260504224705 74 26 0.0 0.9 0.00 0.00 0.00 39 1008.5
20260504224202 74 34 1.7 2.6 0.00 0.00 0.00 33 1008.4
20260504223658 75 58 2.6 2.6 0.00 0.00 0.00 34 1008.1
20260504223154 75 49 0.9 0.9 0.00 0.00 0.00 32 1008.5
20260504222651 75 83 1.7 2.6 0.00 0.00 0.00 32 1008.3
20260504222148 75 33 0.0 0.9 0.00 0.00 0.00 33 1008.3
20260504221645 76 30 0.0 0.9 0.00 0.00 0.00 32 1008.4
20260504221142 76 92 3.5 5.2 0.00 0.00 0.00 31 1008.2
20260504220638 76 112 0.9 2.6 0.00 0.00 0.00 31 1008.1
20260504220136 77 22 0.0 0.9 0.00 0.00 0.00 31 1008.2
20260504215632 77 97 1.7 1.7 0.00 0.00 0.00 31 1008.3
20260504215130 77 184 2.6 3.5 0.00 0.00 0.00 31 1008.2
20260504214626 77 22 0.9 0.9 0.00 0.00 0.00 31 1008.2
20260504214122 77 52 0.9 1.7 0.00 0.00 0.00 30 1008.2
20260504213619 77 76 2.6 3.5 0.00 0.00 0.00 31 1008.3
20260504213116 78 23 0.9 0.9 0.00 0.00 0.00 30 1008.4
20260504212612 77 332 1.7 2.6 0.00 0.00 0.00 32 1008.3
20260504212109 77 211 0.9 1.7 0.00 0.00 0.00 31 1008.6
20260504211606 77 126 5.2 6.1 0.00 0.00 0.00 30 1008.6
20260504211102 77 83 3.5 7.0 0.00 0.00 0.00 30 1008.4
20260504210600 78 27 2.6 3.5 0.00 0.00 0.00 29 1008.7
20260504210056 77 20 0.9 1.7 0.00 0.00 0.00 32 1008.5
20260504205554 78 322 3.5 7.0 0.00 0.00 0.00 29 1008.5
20260504205052 78 17 1.7 2.6 0.00 0.00 0.00 30 1008.4
20260504204550 78 108 2.6 3.5 0.00 0.00 0.00 31 1008.6
20260504204049 77 325 1.7 1.7 0.00 0.00 0.00 31 1008.6
20260504203546 77 106 1.7 2.6 0.00 0.00 0.00 33 1008.4
20260504203044 77 78 3.5 3.5 0.00 0.00 0.00 31 1008.6
20260504202539 77 26 0.0 0.0 0.00 0.00 0.00 31 1008.6
20260504202036 79 194 2.6 2.6 0.00 0.00 0.00 30 1009.0
20260504201533 79 77 2.6 2.6 0.00 0.00 0.00 30 1008.8
20260504201031 78 14 0.0 0.0 0.00 0.00 0.00 32 1008.8
20260504200527 77 299 2.6 2.6 0.00 0.00 0.00 32 1008.8
20260504200024 77 209 3.5 6.1 0.00 0.00 0.00 31 1008.9
20260504195520 78 185 2.6 2.6 0.00 0.00 0.00 30 1008.8
20260504195017 78 0 2.6 3.5 0.00 0.00 0.00 32 1009.0
20260504194513 77 10 2.6 2.6 0.00 0.00 0.00 31 1009.2
20260504194008 77 125 2.6 5.2 0.00 0.00 0.00 32 1009.2
20260504193506 76 137 1.7 2.6 0.00 0.00 0.00 31 1009.4
20260504193004 77 325 2.6 5.2 0.00 0.00 0.00 31 1009.5
20260504192502 77 194 1.7 2.6 0.00 0.00 0.00 30 1009.6
20260504192000 77 69 1.7 2.6 0.00 0.00 0.00 31 1009.8
20260504191458 77 15 2.6 2.6 0.00 0.00 0.00 29 1009.8
20260504190953 77 2 5.2 6.1 0.00 0.00 0.00 30 1009.8
20260504190449 77 354 0.9 0.9 0.00 0.00 0.00 31 1009.8
20260504185946 77 165 2.6 3.5 0.00 0.00 0.00 31 1010.0
20260504185443 77 14 0.9 1.7 0.00 0.00 0.00 30 1009.9
20260504184939 77 210 1.7 2.6 0.00 0.00 0.00 31 1010.1
20260504184434 77 142 0.9 1.7 0.00 0.00 0.00 30 1010.2
20260504183931 76 230 2.6 2.6 0.00 0.00 0.00 32 1010.3
20260504183428 77 334 6.1 7.0 0.00 0.00 0.00 28 1010.5
20260504182926 76 73 0.9 0.9 0.00 0.00 0.00 30 1010.5
20260504182423 76 191 1.7 2.6 0.00 0.00 0.00 30 1010.4
20260504181920 76 84 2.6 2.6 0.00 0.00 0.00 33 1010.5
20260504181417 77 24 0.9 0.9 0.00 0.00 0.00 30 1010.5
20260504180916 76 351 1.7 2.6 0.00 0.00 0.00 32 1010.6
20260504180414 75 2 2.6 3.5 0.00 0.00 0.00 33 1010.5
20260504175912 75 350 0.0 0.9 0.00 0.00 0.00 34 1010.7
20260504175409 76 201 3.5 3.5 0.00 0.00 0.00 28 1010.9
20260504174906 76 12 1.7 2.6 0.00 0.00 0.00 30 1010.8
20260504174404 75 188 3.5 5.2 0.00 0.00 0.00 29 1010.9
20260504173901 75 22 0.9 1.7 0.00 0.00 0.00 30 1010.9
20260504173357 75 211 1.7 3.5 0.00 0.00 0.00 35 1011.0
20260504172854 74 135 2.6 5.2 0.00 0.00 0.00 31 1011.0
20260504172351 75 350 2.6 3.5 0.00 0.00 0.00 29 1011.0
20260504171847 75 291 2.6 2.6 0.00 0.00 0.00 29 1011.3
20260504171344 75 59 0.9 0.9 0.00 0.00 0.00 30 1011.1
20260504170841 74 146 6.1 8.7 0.00 0.00 0.00 30 1011.4
20260504170338 74 137 4.3 7.8 0.00 0.00 0.00 30 1011.5
20260504160256 72 36 0.9 0.9 0.00 0.00 0.00 32 1012.1
20260504150722 70 4 2.6 3.5 0.00 0.00 0.00 33 1012.7
20260504150218 70 130 3.5 5.2 0.00 0.00 0.00 33 1012.8
20260504141148 67 46 0.0 0.9 0.00 0.00 0.00 38 1012.9
20260504140645 66 34 0.9 0.9 0.00 0.00 0.00 41 1012.7
20260504140140 66 356 3.5 5.2 0.00 0.00 0.00 37 1012.8
20260504130608 60 39 0.9 0.9 0.00 0.00 0.00 47 1013.2
20260504130105 60 116 3.5 3.5 0.00 0.00 0.00 49 1013.2